| time (UTC) | temp F | wind direction | speed knots | gust knots | rain 1hr in | rain 24hr in | rain mn in | humidity % | barometer mb |
| 20260505224456 | 78 | 347 | 3.5 | 5.2 | 0.00 | 0.00 | 0.00 | 26 | 1011.5 |
| 20260505223953 | 77 | 333 | 3.5 | 5.2 | 0.00 | 0.00 | 0.00 | 27 | 1011.6 |
| 20260505223450 | 77 | 30 | 1.7 | 2.6 | 0.00 | 0.00 | 0.00 | 24 | 1011.5 |
| 20260505222946 | 77 | 2 | 5.2 | 6.1 | 0.00 | 0.00 | 0.00 | 26 | 1011.6 |
| 20260505222442 | 76 | 37 | 3.5 | 3.5 | 0.00 | 0.00 | 0.00 | 26 | 1011.9 |
| 20260505221938 | 76 | 312 | 3.5 | 5.2 | 0.00 | 0.00 | 0.00 | 26 | 1011.8 |
| 20260505221436 | 78 | 319 | 6.1 | 8.7 | 0.00 | 0.00 | 0.00 | 28 | 1011.8 |
| 20260505220933 | 75 | 317 | 0.9 | 0.9 | 0.00 | 0.00 | 0.00 | 32 | 1011.7 |
| 20260505220430 | 76 | 297 | 4.3 | 5.2 | 0.00 | 0.00 | 0.00 | 34 | 1011.6 |
| 20260505215927 | 76 | 329 | 3.5 | 5.2 | 0.00 | 0.00 | 0.00 | 27 | 1012.0 |
| 20260505215425 | 76 | 315 | 3.5 | 5.2 | 0.00 | 0.00 | 0.00 | 28 | 1011.7 |
| 20260505214923 | 76 | 70 | 0.9 | 1.7 | 0.00 | 0.00 | 0.00 | 26 | 1011.7 |
| 20260505214421 | 76 | 12 | 2.6 | 5.2 | 0.00 | 0.00 | 0.00 | 31 | 1011.8 |
| 20260505213917 | 74 | 313 | 5.2 | 7.0 | 0.00 | 0.00 | 0.00 | 30 | 1012.0 |
| 20260505213415 | 77 | 301 | 8.7 | 9.6 | 0.00 | 0.00 | 0.00 | 31 | 1011.8 |
| 20260505212911 | 75 | 341 | 7.8 | 8.7 | 0.00 | 0.00 | 0.00 | 31 | 1011.9 |
| 20260505212408 | 75 | 337 | 10.4 | 13.0 | 0.00 | 0.00 | 0.00 | 34 | 1012.1 |
| 20260505211904 | 74 | 249 | 4.3 | 5.2 | 0.00 | 0.00 | 0.00 | 33 | 1012.0 |
| 20260505211402 | 75 | 289 | 3.5 | 3.5 | 0.00 | 0.00 | 0.00 | 30 | 1012.0 |
| 20260505210858 | 75 | 335 | 7.0 | 7.0 | 0.00 | 0.00 | 0.00 | 28 | 1011.8 |
| 20260505210356 | 75 | 210 | 1.7 | 1.7 | 0.00 | 0.00 | 0.00 | 28 | 1012.0 |
| 20260505205852 | 75 | 129 | 3.5 | 3.5 | 0.00 | 0.00 | 0.00 | 28 | 1012.0 |
| 20260505205351 | 76 | 15 | 3.5 | 7.0 | 0.00 | 0.00 | 0.00 | 27 | 1012.0 |
| 20260505204847 | 74 | 10 | 7.0 | 8.7 | 0.00 | 0.00 | 0.00 | 30 | 1011.7 |
| 20260505204345 | 74 | 269 | 2.6 | 2.6 | 0.00 | 0.00 | 0.00 | 36 | 1011.9 |
| 20260505203842 | 75 | 32 | 1.7 | 2.6 | 0.00 | 0.00 | 0.00 | 27 | 1012.0 |
| 20260505203338 | 75 | 331 | 6.1 | 7.8 | 0.00 | 0.00 | 0.00 | 30 | 1012.0 |
| 20260505202835 | 76 | 89 | 2.6 | 2.6 | 0.00 | 0.00 | 0.00 | 29 | 1012.0 |
| 20260505202331 | 75 | 331 | 3.5 | 3.5 | 0.00 | 0.00 | 0.00 | 31 | 1012.1 |
| 20260505201828 | 73 | 334 | 0.9 | 0.9 | 0.00 | 0.00 | 0.00 | 32 | 1012.2 |
| 20260505201325 | 74 | 348 | 7.0 | 7.8 | 0.00 | 0.00 | 0.00 | 34 | 1012.2 |
| 20260505200823 | 73 | 354 | 3.5 | 3.5 | 0.00 | 0.00 | 0.00 | 37 | 1012.3 |
| 20260505200320 | 73 | 36 | 2.6 | 2.6 | 0.00 | 0.00 | 0.00 | 30 | 1012.5 |
| 20260505195815 | 74 | 343 | 3.5 | 5.2 | 0.00 | 0.00 | 0.00 | 32 | 1012.6 |
| 20260505195313 | 73 | 2 | 7.8 | 9.6 | 0.00 | 0.00 | 0.00 | 34 | 1012.1 |
| 20260505194810 | 73 | 328 | 5.2 | 7.0 | 0.00 | 0.00 | 0.00 | 33 | 1012.2 |
| 20260505194307 | 74 | 340 | 7.8 | 8.7 | 0.00 | 0.00 | 0.00 | 33 | 1012.2 |
| 20260505193802 | 73 | 114 | 1.7 | 1.7 | 0.00 | 0.00 | 0.00 | 32 | 1012.3 |
| 20260505193300 | 72 | 347 | 9.6 | 13.0 | 0.00 | 0.00 | 0.00 | 35 | 1012.2 |
| 20260505192758 | 72 | 327 | 4.3 | 5.2 | 0.00 | 0.00 | 0.00 | 37 | 1012.3 |
| 20260505192256 | 72 | 354 | 4.3 | 6.1 | 0.00 | 0.00 | 0.00 | 37 | 1012.3 |
| 20260505191753 | 73 | 1 | 4.3 | 5.2 | 0.00 | 0.00 | 0.00 | 35 | 1012.5 |
| 20260505191252 | 73 | 75 | 1.7 | 1.7 | 0.00 | 0.00 | 0.00 | 35 | 1012.5 |
| 20260505190748 | 72 | 338 | 5.2 | 7.0 | 0.00 | 0.00 | 0.00 | 33 | 1012.5 |
| 20260505190243 | 71 | 347 | 0.9 | 1.7 | 0.00 | 0.00 | 0.00 | 36 | 1012.6 |
| 20260505185739 | 71 | 339 | 6.1 | 7.8 | 0.00 | 0.00 | 0.00 | 35 | 1012.5 |
| 20260505185236 | 71 | 294 | 6.1 | 7.0 | 0.00 | 0.00 | 0.00 | 36 | 1012.5 |
| 20260505184732 | 71 | 317 | 1.7 | 1.7 | 0.00 | 0.00 | 0.00 | 41 | 1012.5 |
| 20260505184230 | 70 | 314 | 5.2 | 6.1 | 0.00 | 0.00 | 0.00 | 40 | 1012.3 |
| 20260505183726 | 70 | 321 | 7.0 | 7.8 | 0.00 | 0.00 | 0.00 | 38 | 1012.6 |
| 20260505183224 | 70 | 81 | 1.7 | 2.6 | 0.00 | 0.00 | 0.00 | 37 | 1012.3 |
| 20260505182714 | 69 | 327 | 3.5 | 6.1 | 0.00 | 0.00 | 0.00 | 42 | 1012.6 |
| 20260505182212 | 69 | 336 | 3.5 | 5.2 | 0.00 | 0.00 | 0.00 | 42 | 1012.8 |
| 20260505181708 | 69 | 282 | 5.2 | 6.1 | 0.00 | 0.00 | 0.00 | 44 | 1012.6 |
| 20260505181206 | 68 | 269 | 1.7 | 1.7 | 0.00 | 0.00 | 0.00 | 43 | 1012.7 |
| 20260505180702 | 69 | 345 | 4.3 | 5.2 | 0.00 | 0.00 | 0.00 | 45 | 1012.8 |
| 20260505180159 | 68 | 341 | 0.9 | 1.7 | 0.00 | 0.00 | 0.00 | 43 | 1012.3 |
| 20260505175655 | 67 | 175 | 2.6 | 2.6 | 0.00 | 0.00 | 0.00 | 43 | 1012.6 |
| 20260505175151 | 67 | 225 | 2.6 | 2.6 | 0.00 | 0.00 | 0.00 | 43 | 1012.6 |
| 20260505174648 | 66 | 287 | 0.0 | 0.9 | 0.00 | 0.00 | 0.00 | 44 | 1012.5 |
| 20260505174144 | 66 | 301 | 5.2 | 6.1 | 0.00 | 0.00 | 0.00 | 44 | 1012.9 |
| 20260505173641 | 66 | 309 | 4.3 | 5.2 | 0.00 | 0.00 | 0.00 | 47 | 1012.7 |
| 20260505173138 | 66 | 336 | 2.6 | 3.5 | 0.00 | 0.00 | 0.00 | 49 | 1012.6 |
| 20260505172635 | 66 | 253 | 1.7 | 1.7 | 0.00 | 0.00 | 0.00 | 45 | 1012.7 |
| 20260505172131 | 65 | 26 | 0.0 | 0.9 | 0.00 | 0.00 | 0.00 | 45 | 1012.8 |
| 20260505171626 | 64 | 310 | 0.9 | 0.9 | 0.00 | 0.00 | 0.00 | 49 | 1012.7 |
| 20260505171123 | 63 | 291 | 3.5 | 3.5 | 0.00 | 0.00 | 0.00 | 52 | 1012.7 |
| 20260505170615 | 63 | 309 | 2.6 | 2.6 | 0.00 | 0.00 | 0.00 | 52 | 1012.8 |
| 20260505170111 | 62 | 195 | 1.7 | 2.6 | 0.00 | 0.00 | 0.00 | 51 | 1012.7 |
| 20260505165606 | 62 | 238 | 1.7 | 2.6 | 0.00 | 0.00 | 0.00 | 51 | 1012.8 |
| 20260505165103 | 61 | 232 | 1.7 | 2.6 | 0.00 | 0.00 | 0.00 | 51 | 1012.7 |
| 20260505164558 | 62 | 198 | 2.6 | 2.6 | 0.00 | 0.00 | 0.00 | 52 | 1013.0 |
| 20260505164056 | 61 | 348 | 0.0 | 0.0 | 0.00 | 0.00 | 0.00 | 51 | 1012.9 |
| 20260505163555 | 62 | 285 | 0.9 | 0.9 | 0.00 | 0.00 | 0.00 | 53 | 1012.9 |
| 20260505163051 | 61 | 181 | 0.9 | 0.9 | 0.00 | 0.00 | 0.00 | 53 | 1012.8 |
| 20260505162549 | 61 | 53 | 0.9 | 0.9 | 0.00 | 0.00 | 0.00 | 52 | 1013.0 |
| 20260505162046 | 60 | 3 | 1.7 | 2.6 | 0.00 | 0.00 | 0.00 | 54 | 1012.9 |
| 20260505161543 | 59 | 338 | 1.7 | 1.7 | 0.00 | 0.00 | 0.00 | 57 | 1012.7 |
| 20260505161041 | 60 | 250 | 0.9 | 0.9 | 0.00 | 0.00 | 0.00 | 59 | 1013.1 |
| 20260505160538 | 58 | 319 | 0.0 | 0.0 | 0.00 | 0.00 | 0.00 | 58 | 1012.9 |
| 20260505153015 | 54 | 264 | 0.0 | 0.9 | 0.00 | 0.00 | 0.00 | 66 | 1012.9 |
| 20260505152512 | 54 | 246 | 1.7 | 1.7 | 0.00 | 0.00 | 0.00 | 65 | 1012.8 |
| 20260505152007 | 53 | 220 | 1.7 | 1.7 | 0.00 | 0.00 | 0.00 | 65 | 1013.0 |
| 20260505151502 | 53 | 220 | 0.9 | 0.9 | 0.00 | 0.00 | 0.00 | 66 | 1012.8 |
| 20260505151000 | 53 | 256 | 0.9 | 0.9 | 0.00 | 0.00 | 0.00 | 66 | 1012.8 |
| 20260505150456 | 52 | 259 | 0.0 | 0.0 | 0.00 | 0.00 | 0.00 | 68 | 1012.8 |
| 20260505140427 | 48 | 252 | 0.9 | 0.9 | 0.00 | 0.00 | 0.00 | 71 | 1012.0 |
| 20260505124840 | 44 | 269 | 0.0 | 0.0 | 0.00 | 0.00 | 0.00 | 81 | 1011.6 |
| 20260505124337 | 44 | 269 | 0.0 | 0.0 | 0.00 | 0.00 | 0.00 | 81 | 1011.6 |
| 20260505123833 | 44 | 269 | 0.0 | 0.0 | 0.00 | 0.00 | 0.00 | 80 | 1011.6 |
| 20260505123330 | 44 | 268 | 0.0 | 0.9 | 0.00 | 0.00 | 0.00 | 80 | 1011.2 |
| 20260505122826 | 45 | 270 | 0.0 | 0.0 | 0.00 | 0.00 | 0.00 | 79 | 1011.6 |
| 20260505122323 | 45 | 283 | 0.0 | 0.0 | 0.00 | 0.00 | 0.00 | 79 | 1011.3 |
| 20260505121820 | 45 | 280 | 0.0 | 0.0 | 0.00 | 0.00 | 0.00 | 79 | 1011.3 |
| 20260505121317 | 44 | 228 | 1.7 | 1.7 | 0.00 | 0.00 | 0.00 | 80 | 1011.2 |
| 20260505120813 | 44 | 241 | 0.9 | 0.9 | 0.00 | 0.00 | 0.00 | 80 | 1011.2 |
| 20260505120309 | 44 | 238 | 0.9 | 0.9 | 0.00 | 0.00 | 0.00 | 80 | 1011.1 |
| 20260505115808 | 44 | 263 | 0.0 | 0.9 | 0.00 | 0.00 | 0.00 | 79 | 1011.1 |
| 20260505115306 | 44 | 266 | 0.0 | 0.9 | 0.00 | 0.00 | 0.00 | 79 | 1011.1 |
| 20260505114803 | 44 | 266 | 0.0 | 0.9 | 0.00 | 0.00 | 0.00 | 79 | 1011.1 |
| 20260505114259 | 44 | 242 | 0.9 | 0.9 | 0.00 | 0.00 | 0.00 | 79 | 1011.3 |
| 20260505113756 | 44 | 280 | 0.9 | 0.9 | 0.00 | 0.00 | 0.00 | 79 | 1011.1 |
| 20260505113252 | 44 | 257 | 0.9 | 0.9 | 0.00 | 0.00 | 0.00 | 78 | 1011.3 |
| 20260505112748 | 44 | 270 | 0.0 | 0.0 | 0.00 | 0.00 | 0.00 | 78 | 1011.2 |
| 20260505112246 | 45 | 269 | 0.9 | 0.9 | 0.00 | 0.00 | 0.00 | 77 | 1011.2 |
| 20260505111741 | 45 | 259 | 0.0 | 0.9 | 0.00 | 0.00 | 0.00 | 76 | 1011.0 |
| 20260505111237 | 45 | 269 | 0.9 | 0.9 | 0.00 | 0.00 | 0.00 | 77 | 1011.1 |
| 20260505110733 | 45 | 270 | 0.0 | 0.0 | 0.00 | 0.00 | 0.00 | 76 | 1011.2 |
| 20260505110231 | 45 | 254 | 0.9 | 0.9 | 0.00 | 0.00 | 0.00 | 75 | 1011.0 |
| 20260505102207 | 45 | 249 | 0.0 | 0.9 | 0.00 | 0.00 | 0.00 | 72 | 1010.9 |
| 20260505101705 | 45 | 261 | 0.9 | 0.9 | 0.00 | 0.00 | 0.00 | 71 | 1010.8 |
| 20260505101201 | 45 | 243 | 0.9 | 0.9 | 0.00 | 0.00 | 0.00 | 70 | 1010.9 |
| 20260505100657 | 45 | 253 | 0.0 | 0.9 | 0.00 | 0.00 | 0.00 | 70 | 1010.9 |
| 20260505100154 | 45 | 218 | 0.9 | 0.9 | 0.00 | 0.00 | 0.00 | 69 | 1010.8 |
| 20260505095650 | 45 | 234 | 0.9 | 0.9 | 0.00 | 0.00 | 0.00 | 69 | 1011.2 |
| 20260505095148 | 46 | 275 | 0.0 | 0.0 | 0.00 | 0.00 | 0.00 | 69 | 1011.1 |
| 20260505094643 | 46 | 285 | 0.0 | 0.0 | 0.00 | 0.00 | 0.00 | 70 | 1011.0 |
| 20260505094140 | 46 | 245 | 0.0 | 0.9 | 0.00 | 0.00 | 0.00 | 70 | 1010.9 |
| 20260505093636 | 46 | 262 | 0.9 | 0.9 | 0.00 | 0.00 | 0.00 | 70 | 1010.9 |
| 20260505093134 | 46 | 292 | 0.0 | 0.0 | 0.00 | 0.00 | 0.00 | 70 | 1010.7 |
| 20260505092630 | 46 | 311 | 0.0 | 0.0 | 0.00 | 0.00 | 0.00 | 69 | 1011.0 |
| 20260505092130 | 46 | 317 | 0.0 | 0.0 | 0.00 | 0.00 | 0.00 | 68 | 1010.9 |
| 20260505091626 | 46 | 320 | 0.0 | 0.0 | 0.00 | 0.00 | 0.00 | 68 | 1010.9 |
| 20260505091124 | 47 | 320 | 0.0 | 0.0 | 0.00 | 0.00 | 0.00 | 67 | 1010.9 |
| 20260505090621 | 47 | 320 | 0.0 | 0.0 | 0.00 | 0.00 | 0.00 | 66 | 1010.8 |
| 20260505090119 | 48 | 320 | 0.0 | 0.0 | 0.00 | 0.00 | 0.00 | 66 | 1011.0 |
| 20260505085616 | 48 | 319 | 0.0 | 0.0 | 0.00 | 0.00 | 0.00 | 65 | 1011.1 |
| 20260505085115 | 48 | 285 | 0.0 | 0.0 | 0.00 | 0.00 | 0.00 | 66 | 1010.8 |
| 20260505084612 | 48 | 286 | 0.0 | 0.9 | 0.00 | 0.00 | 0.00 | 67 | 1010.7 |
| 20260505084110 | 48 | 332 | 0.0 | 0.0 | 0.00 | 0.00 | 0.00 | 66 | 1010.9 |
| 20260505083608 | 50 | 332 | 0.0 | 0.0 | 0.00 | 0.00 | 0.00 | 64 | 1010.8 |
| 20260505083104 | 50 | 264 | 0.0 | 0.0 | 0.00 | 0.00 | 0.00 | 64 | 1011.0 |
| 20260505082559 | 50 | 212 | 0.9 | 0.9 | 0.00 | 0.00 | 0.00 | 64 | 1011.1 |
| 20260505082057 | 49 | 203 | 0.9 | 0.9 | 0.00 | 0.00 | 0.00 | 66 | 1010.9 |
| 20260505081553 | 49 | 244 | 0.9 | 1.7 | 0.00 | 0.00 | 0.00 | 66 | 1010.9 |
| 20260505081050 | 48 | 282 | 0.9 | 0.9 | 0.00 | 0.00 | 0.00 | 68 | 1010.9 |
| 20260505080546 | 48 | 313 | 0.0 | 0.0 | 0.00 | 0.00 | 0.00 | 70 | 1010.8 |
| 20260505080044 | 49 | 325 | 0.0 | 0.0 | 0.00 | 0.00 | 0.00 | 70 | 1011.1 |
| 20260505075539 | 47 | 262 | 2.6 | 2.6 | 0.00 | 0.00 | 0.00 | 73 | 1010.8 |
| 20260505075036 | 48 | 202 | 2.6 | 2.6 | 0.00 | 0.00 | 0.00 | 66 | 1010.8 |
| 20260505074533 | 48 | 187 | 1.7 | 1.7 | 0.00 | 0.00 | 0.00 | 67 | 1011.0 |
| 20260505074030 | 47 | 316 | 0.0 | 0.0 | 0.00 | 0.00 | 0.00 | 72 | 1010.7 |
| 20260505073528 | 47 | 308 | 0.0 | 0.0 | 0.00 | 0.00 | 0.00 | 72 | 1010.9 |
| 20260505073026 | 48 | 280 | 0.0 | 0.0 | 0.00 | 0.00 | 0.00 | 69 | 1010.9 |
| 20260505072521 | 50 | 280 | 0.0 | 0.0 | 0.00 | 0.00 | 0.00 | 64 | 1010.9 |
| 20260505072018 | 49 | 274 | 0.0 | 0.0 | 0.00 | 0.00 | 0.00 | 66 | 1010.9 |
| 20260505071513 | 49 | 294 | 0.0 | 0.0 | 0.00 | 0.00 | 0.00 | 65 | 1010.8 |
| 20260505071012 | 49 | 295 | 0.0 | 0.9 | 0.00 | 0.00 | 0.00 | 65 | 1010.9 |
| 20260505070509 | 51 | 156 | 0.0 | 0.0 | 0.00 | 0.00 | 0.00 | 61 | 1010.8 |
| 20260505070005 | 52 | 156 | 0.0 | 0.9 | 0.00 | 0.00 | 0.00 | 58 | 1010.8 |
| 20260505065501 | 50 | 208 | 2.6 | 2.6 | 0.00 | 0.00 | 0.00 | 61 | 1010.7 |
| 20260505064957 | 51 | 186 | 0.0 | 0.0 | 0.00 | 0.00 | 0.00 | 62 | 1010.7 |
| 20260505064454 | 51 | 203 | 0.9 | 0.9 | 0.00 | 0.00 | 0.00 | 61 | 1010.6 |
| 20260505063953 | 50 | 203 | 1.7 | 1.7 | 0.00 | 0.00 | 0.00 | 62 | 1010.3 |
| 20260505063449 | 51 | 72 | 0.0 | 0.0 | 0.00 | 0.00 | 0.00 | 62 | 1010.3 |
| 20260505062945 | 51 | 68 | 0.0 | 0.0 | 0.00 | 0.00 | 0.00 | 61 | 1010.5 |
| 20260505062442 | 52 | 68 | 0.0 | 0.0 | 0.00 | 0.00 | 0.00 | 60 | 1010.5 |
| 20260505061939 | 54 | 68 | 0.0 | 0.0 | 0.00 | 0.00 | 0.00 | 55 | 1010.5 |
| 20260505061437 | 54 | 68 | 0.0 | 0.0 | 0.00 | 0.00 | 0.00 | 55 | 1010.3 |
| 20260505060935 | 53 | 328 | 0.0 | 0.0 | 0.00 | 0.00 | 0.00 | 58 | 1010.2 |
| 20260505060432 | 54 | 321 | 0.0 | 0.0 | 0.00 | 0.00 | 0.00 | 55 | 1010.2 |
| 20260505055928 | 55 | 321 | 0.0 | 0.0 | 0.00 | 0.00 | 0.00 | 56 | 1010.3 |
| 20260505055424 | 56 | 5 | 0.0 | 0.0 | 0.00 | 0.00 | 0.00 | 52 | 1010.3 |
| 20260505054921 | 57 | 5 | 0.0 | 0.9 | 0.00 | 0.00 | 0.00 | 52 | 1010.5 |
| 20260505054418 | 56 | 4 | 0.0 | 0.0 | 0.00 | 0.00 | 0.00 | 52 | 1010.3 |
| 20260505053916 | 56 | 325 | 0.0 | 0.0 | 0.00 | 0.00 | 0.00 | 52 | 1010.5 |
| 20260505053413 | 56 | 326 | 0.0 | 0.0 | 0.00 | 0.00 | 0.00 | 52 | 1010.2 |
| 20260505052910 | 57 | 325 | 0.0 | 0.0 | 0.00 | 0.00 | 0.00 | 51 | 1010.1 |
| 20260505052407 | 58 | 336 | 1.7 | 2.6 | 0.00 | 0.00 | 0.00 | 49 | 1010.2 |
| 20260505051904 | 59 | 331 | 1.7 | 1.7 | 0.00 | 0.00 | 0.00 | 48 | 1010.2 |
| 20260505051401 | 60 | 334 | 3.5 | 3.5 | 0.00 | 0.00 | 0.00 | 46 | 1010.2 |
| 20260505050859 | 60 | 348 | 3.5 | 3.5 | 0.00 | 0.00 | 0.00 | 46 | 1010.3 |
| 20260505050357 | 60 | 341 | 3.5 | 3.5 | 0.00 | 0.00 | 0.00 | 46 | 1010.3 |
| 20260505041325 | 64 | 332 | 5.2 | 6.1 | 0.00 | 0.00 | 0.00 | 41 | 1009.6 |
| 20260505040821 | 64 | 333 | 4.3 | 6.1 | 0.00 | 0.00 | 0.00 | 41 | 1009.6 |
| 20260505040319 | 64 | 318 | 5.2 | 6.1 | 0.00 | 0.00 | 0.00 | 41 | 1009.6 |
| 20260505035816 | 64 | 312 | 7.0 | 8.7 | 0.00 | 0.00 | 0.00 | 41 | 1009.7 |
| 20260505035311 | 64 | 307 | 7.8 | 12.2 | 0.00 | 0.00 | 0.00 | 41 | 1009.1 |
| 20260505034809 | 64 | 312 | 7.8 | 11.3 | 0.00 | 0.00 | 0.00 | 40 | 1008.8 |
| 20260505034305 | 65 | 334 | 3.5 | 5.2 | 0.00 | 0.00 | 0.00 | 40 | 1009.1 |
| 20260505033803 | 65 | 344 | 6.1 | 7.0 | 0.00 | 0.00 | 0.00 | 38 | 1009.2 |
| 20260505033259 | 66 | 336 | 7.8 | 8.7 | 0.00 | 0.00 | 0.00 | 37 | 1009.1 |
| 20260505032758 | 66 | 328 | 6.1 | 7.0 | 0.00 | 0.00 | 0.00 | 36 | 1008.9 |
| 20260505032253 | 66 | 323 | 8.7 | 9.6 | 0.00 | 0.00 | 0.00 | 35 | 1008.8 |
| 20260505031750 | 67 | 333 | 7.8 | 9.6 | 0.00 | 0.00 | 0.00 | 35 | 1008.7 |
| 20260505031246 | 68 | 332 | 7.8 | 11.3 | 0.00 | 0.00 | 0.00 | 34 | 1008.6 |
| 20260505030743 | 68 | 332 | 7.8 | 7.8 | 0.00 | 0.00 | 0.00 | 34 | 1008.5 |
| 20260505030240 | 68 | 343 | 8.7 | 9.6 | 0.00 | 0.00 | 0.00 | 32 | 1008.4 |
| 20260505025735 | 69 | 322 | 6.1 | 7.0 | 0.00 | 0.00 | 0.00 | 26 | 1008.2 |
| 20260505025234 | 70 | 330 | 7.8 | 8.7 | 0.00 | 0.00 | 0.00 | 26 | 1008.4 |
| 20260505024732 | 71 | 350 | 8.7 | 8.7 | 0.00 | 0.00 | 0.00 | 24 | 1008.1 |
| 20260505024229 | 71 | 357 | 7.8 | 8.7 | 0.00 | 0.00 | 0.00 | 25 | 1008.1 |
| 20260505023726 | 71 | 319 | 5.2 | 7.0 | 0.00 | 0.00 | 0.00 | 25 | 1007.8 |
| 20260505023223 | 72 | 335 | 7.0 | 11.3 | 0.00 | 0.00 | 0.00 | 25 | 1008.0 |
| 20260505022720 | 73 | 24 | 7.0 | 8.7 | 0.00 | 0.00 | 0.00 | 26 | 1007.9 |
| 20260505022217 | 73 | 286 | 4.3 | 6.1 | 0.00 | 0.00 | 0.00 | 27 | 1007.9 |
| 20260505021714 | 73 | 329 | 2.6 | 2.6 | 0.00 | 0.00 | 0.00 | 27 | 1007.8 |
| 20260505021211 | 73 | 351 | 5.2 | 6.1 | 0.00 | 0.00 | 0.00 | 26 | 1007.9 |
| 20260505020707 | 73 | 318 | 6.1 | 7.8 | 0.00 | 0.00 | 0.00 | 27 | 1007.8 |
| 20260505020202 | 74 | 352 | 5.2 | 6.1 | 0.00 | 0.00 | 0.00 | 27 | 1007.7 |
| 20260505015700 | 74 | 346 | 7.0 | 7.8 | 0.00 | 0.00 | 0.00 | 27 | 1007.7 |
| 20260505015157 | 74 | 335 | 7.8 | 9.6 | 0.00 | 0.00 | 0.00 | 26 | 1007.7 |
| 20260505014654 | 75 | 5 | 4.3 | 5.2 | 0.00 | 0.00 | 0.00 | 26 | 1007.8 |
| 20260505014150 | 74 | 310 | 4.3 | 5.2 | 0.00 | 0.00 | 0.00 | 26 | 1007.8 |
| 20260505013648 | 75 | 348 | 6.1 | 7.8 | 0.00 | 0.00 | 0.00 | 25 | 1007.6 |
| 20260505013145 | 73 | 16 | 6.1 | 7.0 | 0.00 | 0.00 | 0.00 | 26 | 1008.0 |
| 20260505012643 | 74 | 346 | 4.3 | 5.2 | 0.00 | 0.00 | 0.00 | 26 | 1008.0 |
| 20260505012140 | 74 | 346 | 5.2 | 6.1 | 0.00 | 0.00 | 0.00 | 26 | 1007.8 |
| 20260505011635 | 75 | 0 | 6.1 | 8.7 | 0.00 | 0.00 | 0.00 | 26 | 1007.7 |
| 20260505011128 | 76 | 353 | 14.8 | 18.2 | 0.00 | 0.00 | 0.00 | 24 | 1008.0 |
| 20260505010627 | 77 | 356 | 8.7 | 9.6 | 0.00 | 0.00 | 0.00 | 24 | 1007.8 |
| 20260505010124 | 76 | 349 | 5.2 | 5.2 | 0.00 | 0.00 | 0.00 | 24 | 1007.7 |
| 20260505005620 | 76 | 0 | 5.2 | 7.0 | 0.00 | 0.00 | 0.00 | 24 | 1008.1 |
| 20260505005118 | 77 | 331 | 8.7 | 12.2 | 0.00 | 0.00 | 0.00 | 24 | 1007.8 |
| 20260505004615 | 76 | 343 | 7.0 | 8.7 | 0.00 | 0.00 | 0.00 | 25 | 1007.9 |
| 20260505004112 | 77 | 79 | 5.2 | 7.0 | 0.00 | 0.00 | 0.00 | 23 | 1007.8 |
| 20260505003609 | 77 | 322 | 7.8 | 9.6 | 0.00 | 0.00 | 0.00 | 25 | 1007.7 |
| 20260505003106 | 77 | 355 | 5.2 | 6.1 | 0.00 | 0.00 | 0.00 | 23 | 1007.9 |
| 20260505002601 | 78 | 27 | 6.1 | 7.0 | 0.00 | 0.00 | 0.00 | 22 | 1007.9 |
| 20260505002055 | 78 | 24 | 7.0 | 7.8 | 0.00 | 0.00 | 0.00 | 22 | 1007.9 |
| 20260505001552 | 76 | 345 | 8.7 | 11.3 | 0.00 | 0.00 | 0.00 | 23 | 1007.6 |
| 20260505001049 | 77 | 319 | 7.8 | 8.7 | 0.00 | 0.00 | 0.00 | 24 | 1007.8 |
| 20260505000547 | 76 | 338 | 7.8 | 8.7 | 0.00 | 0.00 | 0.00 | 23 | 1008.2 |
| 20260505000044 | 77 | 27 | 5.2 | 6.1 | 0.00 | 0.00 | 0.00 | 22 | 1008.0 |
| 20260504235540 | 78 | 325 | 2.6 | 5.2 | 0.00 | 0.00 | 0.00 | 22 | 1008.0 |
| 20260504235038 | 76 | 337 | 8.7 | 9.6 | 0.00 | 0.00 | 0.00 | 22 | 1008.1 |
| 20260504234534 | 77 | 321 | 5.2 | 6.1 | 0.00 | 0.00 | 0.00 | 23 | 1008.1 |
| 20260504234031 | 77 | 340 | 9.6 | 12.2 | 0.00 | 0.00 | 0.00 | 22 | 1008.2 |
| 20260504233526 | 77 | 326 | 10.4 | 12.2 | 0.00 | 0.00 | 0.00 | 23 | 1008.1 |
| 20260504233024 | 77 | 357 | 3.5 | 3.5 | 0.00 | 0.00 | 0.00 | 23 | 1008.1 |
| 20260504232521 | 77 | 349 | 5.2 | 8.7 | 0.00 | 0.00 | 0.00 | 24 | 1008.1 |
| 20260504232019 | 78 | 327 | 13.9 | 15.6 | 0.00 | 0.00 | 0.00 | 24 | 1008.4 |
| 20260504231515 | 78 | 1 | 3.5 | 5.2 | 0.00 | 0.00 | 0.00 | 22 | 1008.2 |
| 20260504231011 | 78 | 327 | 4.3 | 6.1 | 0.00 | 0.00 | 0.00 | 25 | 1008.2 |
| 20260504230508 | 77 | 343 | 4.3 | 5.2 | 0.00 | 0.00 | 0.00 | 24 | 1008.4 |
| 20260504230006 | 76 | 333 | 4.3 | 5.2 | 0.00 | 0.00 | 0.00 | 25 | 1008.4 |
| 20260504225502 | 77 | 338 | 13.0 | 14.8 | 0.00 | 0.00 | 0.00 | 24 | 1008.5 |
| 20260504225000 | 77 | 4 | 2.6 | 3.5 | 0.00 | 0.00 | 0.00 | 24 | 1008.5 |